Voltar ao catálogo

THOR ABLESTAR DEB

AtivoLEO
NORAD 335·DEBRIS·🇺🇸 United States

Lançado Jun 29, 1961 de Cape Canaveral Space Force Station

Loading…

Próximas Passagens (próximas 24 horas)

TLE

AtualizadoSource: Space-Track

Época: Sep 13, 2026, 07:59 UTC

1   335U 61015DM  26256.33285957  .00000581  00000-0  29234-3 0  9994
2   335  66.8371 262.9579 0030697 109.8370 250.6039 14.23087852339850

Acompanhe THOR ABLESTAR DEB em tempo real com AllMySat

Download on the App Store